,,Stat5,,Stat1,,Stat2,,Stat3,,Stat4,,Wind1,,Wind1,
time,status,PA1M_AVG,status,PR1M_SUM,status,RH1M_AVG,status,SR1M_AVG,status,TA1M_AVG,status,W1dAve1m,status,W1sAve1m,
2001-09-15, 00:00:01,VALID,917.371,VALID,0,VALID,97.3413,VALID,-0.0679233,VALID,19.6058,VALID,217,VALID,0,
2001-09-15, 00:01:01,VALID,917.371,VALID,0,VALID,97.2549,VALID,0,VALID,19.5695,VALID,217,VALID,0.0707589,
2001-09-15, 00:02:01,VALID,917.367,VALID,0,VALID,97.3248,VALID,0.0169808,VALID,19.5151,VALID,327,VALID,0.308712,
2001-09-15, 00:03:01,VALID,917.359,VALID,0,VALID,97.4011,VALID,0,VALID,19.4798,VALID,8,VALID,0.483964,
2001-09-15, 00:04:01,VALID,917.351,VALID,0,VALID,97.8055,VALID,0,VALID,19.528,VALID,312,VALID,0.660714,
2001-09-15, 00:05:01,VALID,917.343,VALID,0,VALID,98.2976,VALID,0,VALID,19.6478,VALID,307,VALID,0.393842,
2001-09-15, 00:06:01,VALID,917.328,VALID,0,VALID,98.3523,VALID,0,VALID,19.66,VALID,310,VALID,0,
2001-09-15, 00:07:01,VALID,917.314,VALID,0,VALID,98.3675,VALID,0.0339617,VALID,19.6796,VALID,310,VALID,0,
2001-09-15, 00:08:01,VALID,917.308,VALID,0,VALID,98.3561,VALID,0.0169808,VALID,19.6798,VALID,310,VALID,0,
2001-09-15, 00:09:01,VALID,917.291,VALID,0,VALID,98.2899,VALID,0.0339617,VALID,19.6605,VALID,320,VALID,0,
2001-09-15, 00:10:01,VALID,917.275,VALID,0,VALID,98.2175,VALID,0,VALID,19.5988,VALID,331,VALID,0,
2001-09-15, 00:11:01,VALID,917.255,VALID,0,VALID,98.2353,VALID,0.0339617,VALID,19.5862,VALID,331,VALID,0,
2001-09-15, 00:12:01,VALID,917.243,VALID,0,VALID,98.3141,VALID,0,VALID,19.5832,VALID,2,VALID,0.223357,
2001-09-15, 00:13:01,VALID,917.235,VALID,0,VALID,98.2569,VALID,0,VALID,19.5598,VALID,16,VALID,0.298177,
2001-09-15, 00:14:01,VALID,917.227,VALID,0,VALID,97.9034,VALID,-0.0169808,VALID,19.4284,VALID,10,VALID,0.492877,
2001-09-15, 00:15:01,VALID,917.22,VALID,0,VALID,97.8614,VALID,0,VALID,19.3442,VALID,9,VALID,0.390625,
2001-09-15, 00:16:00,VALID,917.217,VALID,0,VALID,98.2213,VALID,0,VALID,19.3894,VALID,3,VALID,0.256727,
2001-09-15, 00:17:00,VALID,917.204,VALID,0,VALID,98.4489,VALID,0,VALID,19.4532,VALID,3,VALID,0.388557,
2001-09-15, 00:18:00,VALID,917.194,VALID,0,VALID,98.557,VALID,-0.0169808,VALID,19.5318,VALID,3,VALID,0.0500422,
2001-09-15, 00:19:00,VALID,917.196,VALID,0,VALID,98.6193,VALID,0,VALID,19.5834,VALID,4,VALID,0.275223,
2001-09-15, 00:20:00,VALID,917.213,VALID,0,VALID,98.66,VALID,0.0169808,VALID,19.6346,VALID,11,VALID,0.581913,
2001-09-15, 00:21:00,VALID,917.237,VALID,0,VALID,98.6905,VALID,0,VALID,19.6766,VALID,11,VALID,0.225718,
2001-09-15, 00:22:00,VALID,917.231,VALID,0,VALID,98.7121,VALID,0,VALID,19.6925,VALID,337,VALID,0.240498,
2001-09-15, 00:23:00,VALID,917.226,VALID,0,VALID,98.7693,VALID,-0.0169808,VALID,19.7837,VALID,353,VALID,0.0350379,
2001-09-15, 00:24:00,VALID,917.215,VALID,0,VALID,98.7604,VALID,0,VALID,19.78,VALID,16,VALID,0,
2001-09-15, 00:25:00,VALID,917.2,VALID,0,VALID,98.7465,VALID,0,VALID,19.7999,VALID,16,VALID,0,
2001-09-15, 00:26:00,VALID,917.174,VALID,0,VALID,98.7617,VALID,0.0169808,VALID,19.8187,VALID,13,VALID,0,
2001-09-15, 00:27:00,VALID,917.143,VALID,0,VALID,98.7719,VALID,-0.0339617,VALID,19.8354,VALID,356,VALID,0,
2001-09-15, 00:28:00,VALID,917.115,VALID,0,VALID,98.7871,VALID,-0.0509425,VALID,19.854,VALID,350,VALID,0,
2001-09-15, 00:29:00,VALID,917.081,VALID,0,VALID,98.7757,VALID,0,VALID,19.8709,VALID,350,VALID,0,
2001-09-15, 00:30:00,VALID,917.053,VALID,0,VALID,98.7719,VALID,-0.0339617,VALID,19.8774,VALID,350,VALID,0,
2001-09-15, 00:31:00,VALID,917.027,VALID,0,VALID,98.7579,VALID,-0.0169808,VALID,19.8804,VALID,350,VALID,0,
2001-09-15, 00:32:00,VALID,916.994,VALID,0,VALID,98.7515,VALID,-0.0169808,VALID,19.8804,VALID,350,VALID,0,
2001-09-15, 00:33:00,VALID,916.956,VALID,0,VALID,98.7058,VALID,-0.0339617,VALID,19.8612,VALID,350,VALID,0,
2001-09-15, 00:34:00,VALID,916.95,VALID,0,VALID,98.6918,VALID,0,VALID,19.8456,VALID,348,VALID,0,
2001-09-15, 00:35:00,VALID,916.941,VALID,0,VALID,98.6841,VALID,-0.0169808,VALID,19.8123,VALID,3,VALID,0,
2001-09-15, 00:36:00,VALID,916.921,VALID,0,VALID,98.5735,VALID,0.0169808,VALID,19.7479,VALID,19,VALID,0,
2001-09-15, 00:37:00,VALID,916.917,VALID,0,VALID,98.5633,VALID,0,VALID,19.7151,VALID,18,VALID,0.467634,
2001-09-15, 00:38:00,VALID,916.906,VALID,0,VALID,98.5964,VALID,-0.0169808,VALID,19.7121,VALID,20,VALID,0.685369,
2001-09-15, 00:39:00,VALID,916.884,VALID,0,VALID,98.557,VALID,-0.0169808,VALID,19.6769,VALID,21,VALID,0.538218,
2001-09-15, 00:40:00,VALID,916.865,VALID,0,VALID,98.5328,VALID,-0.0339617,VALID,19.6316,VALID,19,VALID,0.586571,
2001-09-15, 00:41:00,VALID,916.841,VALID,0,VALID,98.571,VALID,0,VALID,19.6185,VALID,29,VALID,0.661222,
2001-09-15, 00:42:00,VALID,916.831,VALID,0,VALID,98.5697,VALID,-0.0339617,VALID,19.6021,VALID,31,VALID,0.424479,
2001-09-15, 00:43:00,VALID,916.786,VALID,0,VALID,98.6053,VALID,0,VALID,19.6058,VALID,10,VALID,0.244792,
2001-09-15, 00:44:00,VALID,916.767,VALID,0,VALID,98.6066,VALID,0,VALID,19.5993,VALID,13,VALID,0.00735294,
2001-09-15, 00:45:00,VALID,916.737,VALID,0,VALID,98.6447,VALID,-0.0169808,VALID,19.6026,VALID,3,VALID,0.111064,
2001-09-15, 00:46:00,VALID,916.711,VALID,0,VALID,98.6791,VALID,-0.0169808,VALID,19.6085,VALID,3,VALID,0,
2001-09-15, 00:47:00,VALID,916.695,VALID,0,VALID,98.6943,VALID,0,VALID,19.6217,VALID,3,VALID,0,
2001-09-15, 00:48:00,VALID,916.688,VALID,0,VALID,98.7121,VALID,-0.0169808,VALID,19.6212,VALID,3,VALID,0.00147804,
2001-09-15, 00:49:00,VALID,916.687,VALID,0,VALID,98.7465,VALID,-0.0339617,VALID,19.654,VALID,340,VALID,0.302154,
2001-09-15, 00:50:00,VALID,916.675,VALID,0,VALID,98.7515,VALID,-0.0679233,VALID,19.6575,VALID,339,VALID,0.00260417,
2001-09-15, 00:51:00,VALID,916.69,VALID,0,VALID,98.7871,VALID,-0.0509425,VALID,19.6965,VALID,339,VALID,0,
2001-09-15, 00:52:00,VALID,916.689,VALID,0,VALID,98.8011,VALID,-0.0679233,VALID,19.7025,VALID,339,VALID,0,
2001-09-15, 00:53:00,VALID,916.705,VALID,0,VALID,98.8215,VALID,-0.0339617,VALID,19.7251,VALID,27,VALID,0.130515,
2001-09-15, 00:54:00,VALID,916.699,VALID,0,VALID,98.8253,VALID,-0.0169808,VALID,19.7512,VALID,35,VALID,0,
2001-09-15, 00:55:00,VALID,916.683,VALID,0,VALID,98.8291,VALID,-0.0849042,VALID,19.7613,VALID,338,VALID,0.235938,
2001-09-15, 00:56:00,VALID,916.681,VALID,0,VALID,98.8189,VALID,-0.0679233,VALID,19.7345,VALID,295,VALID,0.00852273,
2001-09-15, 00:57:00,VALID,916.676,VALID,0,VALID,98.8177,VALID,-0.0509425,VALID,19.7479,VALID,295,VALID,0,
2001-09-15, 00:58:00,VALID,916.695,VALID,0,VALID,98.838,VALID,-0.101885,VALID,19.7708,VALID,294,VALID,0.000844595,
2001-09-15, 00:59:00,VALID,916.706,VALID,0,VALID,98.8304,VALID,-0.0679233,VALID,19.777,VALID,237,VALID,0.00094697,
2001-09-15, 01:00:00,VALID,916.715,VALID,0,VALID,98.8304,VALID,-0.0509425,VALID,19.7738,VALID,155,VALID,0.146748,
2001-09-15, 01:01:00,VALID,916.729,VALID,0,VALID,98.8431,VALID,-0.0679233,VALID,19.7864,VALID,191,VALID,0.377821,
2001-09-15, 01:02:00,VALID,916.731,VALID,0,VALID,98.8494,VALID,-0.0679233,VALID,19.8096,VALID,193,VALID,0.365349,
2001-09-15, 01:03:00,VALID,916.724,VALID,0,VALID,98.8622,VALID,-0.0339617,VALID,19.8158,VALID,194,VALID,0.366343,
2001-09-15, 01:04:00,VALID,916.727,VALID,0,VALID,98.8342,VALID,-0.0169808,VALID,19.7961,VALID,211,VALID,0.68817,
2001-09-15, 01:05:00,VALID,916.735,VALID,0,VALID,98.8444,VALID,-0.0509425,VALID,19.7937,VALID,227,VALID,0.689631,
2001-09-15, 01:06:00,VALID,916.728,VALID,0,VALID,98.8406,VALID,-0.0509425,VALID,19.7835,VALID,224,VALID,0.706292,
2001-09-15, 01:07:00,VALID,916.721,VALID,0,VALID,98.8482,VALID,-0.0169808,VALID,19.777,VALID,208,VALID,0.65815,
2001-09-15, 01:08:00,VALID,916.727,VALID,0,VALID,98.8698,VALID,-0.0339617,VALID,19.7765,VALID,207,VALID,0.728693,
2001-09-15, 01:09:00,VALID,916.729,VALID,0,VALID,98.8736,VALID,-0.0509425,VALID,19.773,VALID,182,VALID,0.71658,
2001-09-15, 01:10:00,VALID,916.712,VALID,0,VALID,98.866,VALID,-0.0339617,VALID,19.7636,VALID,179,VALID,0.895833,
2001-09-15, 01:11:00,VALID,916.72,VALID,0,VALID,98.8685,VALID,-0.0339617,VALID,19.7611,VALID,183,VALID,0.421186,
2001-09-15, 01:12:00,VALID,916.721,VALID,0,VALID,98.8736,VALID,-0.0849042,VALID,19.7546,VALID,192,VALID,0.577914,
2001-09-15, 01:13:00,VALID,916.736,VALID,0,VALID,98.8787,VALID,-0.0509425,VALID,19.7415,VALID,175,VALID,0.61317,
2001-09-15, 01:14:00,VALID,916.751,VALID,0,VALID,98.88,VALID,-0.0509425,VALID,19.7283,VALID,174,VALID,0.63589,
2001-09-15, 01:15:00,VALID,916.783,VALID,0,VALID,98.8825,VALID,-0.0679233,VALID,19.7189,VALID,171,VALID,0.568623,
2001-09-15, 01:16:00,VALID,916.786,VALID,0,VALID,98.9016,VALID,-0.0509425,VALID,19.7087,VALID,153,VALID,0.500845,
2001-09-15, 01:17:00,VALID,916.8,VALID,0,VALID,98.88,VALID,-0.0849042,VALID,19.7022,VALID,111,VALID,0.568892,
2001-09-15, 01:18:00,VALID,916.804,VALID,0,VALID,98.8901,VALID,-0.0509425,VALID,19.6928,VALID,125,VALID,0.657986,
2001-09-15, 01:19:00,VALID,916.806,VALID,0,VALID,98.9321,VALID,-0.0679233,VALID,19.6863,VALID,141,VALID,0.619575,
2001-09-15, 01:20:00,VALID,916.797,VALID,0,VALID,98.9397,VALID,0,VALID,19.6957,VALID,146,VALID,0.69807,
2001-09-15, 01:21:00,VALID,916.793,VALID,0,VALID,98.9436,VALID,-0.0509425,VALID,19.6965,VALID,139,VALID,0.686233,
2001-09-15, 01:22:00,VALID,916.779,VALID,0,VALID,98.9397,VALID,-0.0339617,VALID,19.6731,VALID,128,VALID,0.448214,
2001-09-15, 01:23:00,VALID,916.76,VALID,0,VALID,98.955,VALID,-0.0339617,VALID,19.6935,VALID,121,VALID,0.527936,
2001-09-15, 01:24:00,VALID,916.745,VALID,0,VALID,98.9448,VALID,-0.0339617,VALID,19.6801,VALID,126,VALID,0.289274,
2001-09-15, 01:25:00,VALID,916.729,VALID,0,VALID,98.955,VALID,-0.0339617,VALID,19.654,VALID,111,VALID,0.597762,
2001-09-15, 01:26:00,VALID,916.703,VALID,0,VALID,98.9537,VALID,-0.0509425,VALID,19.6709,VALID,135,VALID,0.702415,
2001-09-15, 01:27:00,VALID,916.692,VALID,0,VALID,98.9537,VALID,-0.0509425,VALID,19.6379,VALID,103,VALID,0.56033,
2001-09-15, 01:28:00,VALID,916.682,VALID,0,VALID,98.983,VALID,-0.0509425,VALID,19.6383,VALID,138,VALID,0.361762,
2001-09-15, 01:29:00,VALID,916.657,VALID,0,VALID,99.0071,VALID,-0.0679233,VALID,19.6649,VALID,142,VALID,0.467601,
2001-09-15, 01:30:00,VALID,916.635,VALID,0,VALID,99.0198,VALID,-0.0679233,VALID,19.6543,VALID,155,VALID,0.599451,
2001-09-15, 01:31:00,VALID,916.631,VALID,0,VALID,99.0249,VALID,-0.0849042,VALID,19.6672,VALID,140,VALID,0.59308,
2001-09-15, 01:32:00,VALID,916.62,VALID,0,VALID,99.03,VALID,-0.0849042,VALID,19.6674,VALID,135,VALID,1.03433,
2001-09-15, 01:33:00,VALID,916.629,VALID,0,VALID,99.0287,VALID,-0.0849042,VALID,19.6644,VALID,131,VALID,0.505701,
2001-09-15, 01:34:00,VALID,916.617,VALID,0,VALID,99.0262,VALID,-0.0339617,VALID,19.6669,VALID,132,VALID,0.653083,
2001-09-15, 01:35:00,VALID,916.594,VALID,0,VALID,99.0173,VALID,-0.0169808,VALID,19.6577,VALID,134,VALID,0.55303,
2001-09-15, 01:36:00,VALID,916.582,VALID,0,VALID,99.0389,VALID,-0.0339617,VALID,19.6483,VALID,134,VALID,0.783854,
2001-09-15, 01:37:00,VALID,916.548,VALID,0,VALID,99.0466,VALID,-0.0509425,VALID,19.6379,VALID,147,VALID,0.837457,
2001-09-15, 01:38:00,VALID,916.528,VALID,0,VALID,99.0542,VALID,-0.0339617,VALID,19.6545,VALID,126,VALID,0.590763,
2001-09-15, 01:39:00,VALID,916.5,VALID,0,VALID,99.0656,VALID,-0.0509425,VALID,19.647,VALID,114,VALID,0.647593,
2001-09-15, 01:40:00,VALID,916.485,VALID,0,VALID,99.0631,VALID,-0.0679233,VALID,19.6475,VALID,98,VALID,0.454018,
2001-09-15, 01:41:00,VALID,916.47,VALID,0,VALID,99.0478,VALID,-0.0849042,VALID,19.6381,VALID,111,VALID,0.603693,
2001-09-15, 01:42:00,VALID,916.442,VALID,0,VALID,99.0555,VALID,-0.0509425,VALID,19.6383,VALID,110,VALID,0.186022,
2001-09-15, 01:43:00,VALID,916.428,VALID,0,VALID,99.0644,VALID,0,VALID,19.6344,VALID,157,VALID,0.36761,
2001-09-15, 01:44:00,VALID,916.413,VALID,0,VALID,99.0618,VALID,-0.0339617,VALID,19.6279,VALID,106,VALID,0.294271,
2001-09-15, 01:45:00,VALID,916.39,VALID,0,VALID,99.0809,VALID,-0.0509425,VALID,19.6284,VALID,138,VALID,0.231988,
2001-09-15, 01:46:00,VALID,916.373,VALID,0,VALID,99.0733,VALID,0,VALID,19.6319,VALID,160,VALID,0.465278,
2001-09-15, 01:47:00,VALID,916.347,VALID,0,VALID,99.072,VALID,-0.0169808,VALID,19.6085,VALID,114,VALID,0.306985,
2001-09-15, 01:48:00,VALID,916.318,VALID,0,VALID,99.0682,VALID,-0.0339617,VALID,19.6026,VALID,92,VALID,0.335093,
2001-09-15, 01:49:00,VALID,916.304,VALID,0,VALID,99.0872,VALID,0,VALID,19.5956,VALID,154,VALID,0.362946,
2001-09-15, 01:50:00,VALID,916.287,VALID,0,VALID,99.0974,VALID,0,VALID,19.6053,VALID,167,VALID,0.525805,
2001-09-15, 01:51:00,VALID,916.284,VALID,0,VALID,99.1063,VALID,0,VALID,19.5954,VALID,180,VALID,0.434122,
2001-09-15, 01:52:00,VALID,916.28,VALID,0,VALID,99.1038,VALID,0,VALID,19.6051,VALID,133,VALID,0.357264,
2001-09-15, 01:53:00,VALID,916.284,VALID,0,VALID,99.1012,VALID,0,VALID,19.5956,VALID,111,VALID,0.201468,
2001-09-15, 01:54:00,VALID,916.301,VALID,0,VALID,99.1038,VALID,0,VALID,19.6048,VALID,123,VALID,0.263021,
2001-09-15, 01:55:00,VALID,916.315,VALID,0,VALID,99.1165,VALID,-0.0169808,VALID,19.6187,VALID,146,VALID,0.486545,
2001-09-15, 01:56:00,VALID,916.317,VALID,0,VALID,99.1152,VALID,0,VALID,19.6088,VALID,148,VALID,0.290441,
2001-09-15, 01:57:00,VALID,916.313,VALID,0,VALID,99.1114,VALID,-0.0339617,VALID,19.619,VALID,135,VALID,0.157728,
2001-09-15, 01:58:00,VALID,916.286,VALID,0,VALID,99.1114,VALID,-0.0169808,VALID,19.616,VALID,146,VALID,0.174107,
2001-09-15, 01:59:00,VALID,916.263,VALID,0,VALID,99.1025,VALID,-0.0169808,VALID,19.5929,VALID,119,VALID,0.342803,
2001-09-15, 02:00:00,VALID,916.247,VALID,0,VALID,99.1076,VALID,0,VALID,19.5864,VALID,136,VALID,0.163218,
2001-09-15, 02:01:00,VALID,916.212,VALID,0,VALID,99.1025,VALID,-0.0169808,VALID,19.58,VALID,141,VALID,0.458615,
2001-09-15, 02:02:00,VALID,916.178,VALID,0,VALID,99.1076,VALID,-0.0509425,VALID,19.57,VALID,150,VALID,0.376184,
2001-09-15, 02:03:00,VALID,916.124,VALID,0,VALID,99.1152,VALID,-0.0679233,VALID,19.5603,VALID,136,VALID,0.166233,
2001-09-15, 02:04:00,VALID,916.077,VALID,0,VALID,99.1178,VALID,-0.0169808,VALID,19.5636,VALID,135,VALID,0.314887,
2001-09-15, 02:05:00,VALID,916.053,VALID,0,VALID,99.1025,VALID,-0.0169808,VALID,19.5477,VALID,157,VALID,0.41682,
2001-09-15, 02:06:00,VALID,916.01,VALID,0,VALID,99.0949,VALID,-0.0339617,VALID,19.5481,VALID,130,VALID,0.22614,
2001-09-15, 02:07:00,VALID,915.962,VALID,0,VALID,99.0974,VALID,0,VALID,19.5253,VALID,126,VALID,0.0504464,
2001-09-15, 02:08:00,VALID,915.952,VALID,0,VALID,99.1203,VALID,-0.0169808,VALID,19.5119,VALID,86,VALID,0.0866477,
2001-09-15, 02:09:00,VALID,915.933,VALID,0,VALID,99.1076,VALID,0,VALID,19.5253,VALID,103,VALID,0.707348,
2001-09-15, 02:10:00,VALID,915.923,VALID,0,VALID,99.105,VALID,-0.0169808,VALID,19.5057,VALID,111,VALID,0.697213,
2001-09-15, 02:11:00,VALID,915.908,VALID,0,VALID,99.0974,VALID,-0.0169808,VALID,19.4831,VALID,106,VALID,0.517992,
2001-09-15, 02:12:00,VALID,915.897,VALID,0,VALID,99.1025,VALID,-0.0509425,VALID,19.4768,VALID,86,VALID,0.353516,
2001-09-15, 02:13:00,VALID,915.885,VALID,0,VALID,99.105,VALID,-0.0169808,VALID,19.4508,VALID,80,VALID,0.273003,
2001-09-15, 02:14:00,VALID,915.866,VALID,0,VALID,99.1305,VALID,-0.0169808,VALID,19.4671,VALID,28,VALID,0.151425,
2001-09-15, 02:15:00,VALID,915.851,VALID,0,VALID,99.1394,VALID,-0.0169808,VALID,19.4801,VALID,22,VALID,0.228674,
2001-09-15, 02:16:00,VALID,915.815,VALID,0,VALID,99.147,VALID,-0.0169808,VALID,19.4962,VALID,51,VALID,0.0629464,
2001-09-15, 02:17:00,VALID,915.79,VALID,0,VALID,99.1381,VALID,-0.0169808,VALID,19.4863,VALID,75,VALID,0.0279356,
2001-09-15, 02:18:00,VALID,915.761,VALID,0,VALID,99.1585,VALID,-0.0169808,VALID,19.4923,VALID,37,VALID,0,
2001-09-15, 02:19:00,VALID,915.749,VALID,0,VALID,99.1432,VALID,-0.0339617,VALID,19.4965,VALID,61,VALID,0.178209,
2001-09-15, 02:20:00,VALID,915.743,VALID,0,VALID,99.1585,VALID,-0.0169808,VALID,19.4898,VALID,68,VALID,0.0374053,
2001-09-15, 02:21:00,VALID,915.75,VALID,0,VALID,99.133,VALID,0,VALID,19.4927,VALID,102,VALID,0.444444,
2001-09-15, 02:22:00,VALID,915.751,VALID,0,VALID,99.1381,VALID,-0.0169808,VALID,19.4632,VALID,124,VALID,0.407552,
2001-09-15, 02:23:00,VALID,915.737,VALID,0,VALID,99.1496,VALID,0,VALID,19.4736,VALID,111,VALID,0.493336,
2001-09-15, 02:24:00,VALID,915.734,VALID,0,VALID,99.1597,VALID,0,VALID,19.4759,VALID,147,VALID,1.07876,
2001-09-15, 02:25:00,VALID,915.728,VALID,0,VALID,99.1763,VALID,0,VALID,19.4925,VALID,164,VALID,0.900893,
2001-09-15, 02:26:00,VALID,915.715,VALID,0,VALID,99.1686,VALID,-0.0169808,VALID,19.493,VALID,151,VALID,0.960701,
2001-09-15, 02:27:00,VALID,915.703,VALID,0,VALID,99.1724,VALID,0,VALID,19.4999,VALID,153,VALID,0.862331,
2001-09-15, 02:28:00,VALID,915.677,VALID,0,VALID,99.161,VALID,-0.0169808,VALID,19.4965,VALID,157,VALID,0.965372,
2001-09-15, 02:29:00,VALID,915.652,VALID,0,VALID,99.1712,VALID,-0.0169808,VALID,19.4865,VALID,157,VALID,1.1508,
2001-09-15, 02:30:00,VALID,915.631,VALID,0,VALID,99.1661,VALID,-0.0169808,VALID,19.493,VALID,151,VALID,1.13802,
2001-09-15, 02:31:00,VALID,915.6,VALID,0,VALID,99.1788,VALID,-0.0169808,VALID,19.4863,VALID,152,VALID,0.995009,
2001-09-15, 02:32:00,VALID,915.574,VALID,0,VALID,99.1941,VALID,0,VALID,19.5057,VALID,159,VALID,0.893842,
2001-09-15, 02:33:00,VALID,915.565,VALID,0,VALID,99.189,VALID,0,VALID,19.4927,VALID,149,VALID,1.20144,
2001-09-15, 02:34:00,VALID,915.577,VALID,0,VALID,99.2017,VALID,0,VALID,19.4992,VALID,148,VALID,1.33996,
2001-09-15, 02:35:00,VALID,915.595,VALID,0,VALID,99.1902,VALID,-0.0169808,VALID,19.5186,VALID,117,VALID,0.601326,
2001-09-15, 02:36:00,VALID,915.605,VALID,0,VALID,99.1979,VALID,0,VALID,19.525,VALID,32,VALID,0.399916,
2001-09-15, 02:37:00,VALID,915.615,VALID,0,VALID,99.1852,VALID,0,VALID,19.5313,VALID,20,VALID,1.02365,
2001-09-15, 02:38:00,VALID,915.651,VALID,0,VALID,99.1686,VALID,0,VALID,19.5151,VALID,32,VALID,1.11387,
2001-09-15, 02:39:00,VALID,915.69,VALID,0,VALID,99.1368,VALID,0,VALID,19.4664,VALID,51,VALID,0.852648,
2001-09-15, 02:40:00,VALID,915.714,VALID,0,VALID,99.1203,VALID,0,VALID,19.4639,VALID,92,VALID,0.611545,
2001-09-15, 02:41:00,VALID,915.736,VALID,0,VALID,99.1165,VALID,0,VALID,19.4448,VALID,103,VALID,0.548254,
2001-09-15, 02:42:00,VALID,915.729,VALID,0,VALID,99.1394,VALID,0,VALID,19.4443,VALID,95,VALID,0.267736,
2001-09-15, 02:43:00,VALID,915.71,VALID,0,VALID,99.1508,VALID,-0.0509425,VALID,19.451,VALID,42,VALID,0.489509,
2001-09-15, 02:44:00,VALID,915.709,VALID,0,VALID,99.1521,VALID,-0.0509425,VALID,19.4376,VALID,51,VALID,0.682765,
2001-09-15, 02:45:00,VALID,915.675,VALID,0,VALID,99.1356,VALID,-0.0339617,VALID,19.4351,VALID,50,VALID,0.171242,
2001-09-15, 02:46:00,VALID,915.642,VALID,0,VALID,99.1406,VALID,0.0679233,VALID,19.4302,VALID,57,VALID,0,
2001-09-15, 02:47:00,VALID,915.626,VALID,0,VALID,99.1381,VALID,0.0849042,VALID,19.4297,VALID,83,VALID,0,
2001-09-15, 02:48:00,VALID,915.593,VALID,0,VALID,99.1559,VALID,0.101885,VALID,19.4232,VALID,92,VALID,0.464844,
2001-09-15, 02:49:00,VALID,915.561,VALID,0,VALID,99.1521,VALID,0.0509425,VALID,19.4299,VALID,98,VALID,0.432726,
2001-09-15, 02:50:00,VALID,915.545,VALID,0,VALID,99.1496,VALID,0.0849042,VALID,19.4364,VALID,109,VALID,0.547335,
2001-09-15, 02:51:00,VALID,915.567,VALID,0,VALID,99.1368,VALID,0.0849042,VALID,19.4297,VALID,125,VALID,1.0152,
2001-09-15, 02:52:00,VALID,915.588,VALID,0,VALID,99.1432,VALID,0.0509425,VALID,19.4396,VALID,131,VALID,1.37076,
2001-09-15, 02:53:00,VALID,915.615,VALID,0,VALID,99.1483,VALID,0.0509425,VALID,19.4657,VALID,104,VALID,0.84517,
2001-09-15, 02:54:00,VALID,915.654,VALID,0,VALID,99.1216,VALID,0.0509425,VALID,19.4918,VALID,73,VALID,0.58087,
2001-09-15, 02:55:00,VALID,915.651,VALID,0,VALID,99.0885,VALID,0.0339617,VALID,19.4846,VALID,110,VALID,0.65984,
2001-09-15, 02:56:00,VALID,915.661,VALID,0,VALID,99.0644,VALID,0.0679233,VALID,19.5114,VALID,128,VALID,0.534801,
2001-09-15, 02:57:00,VALID,915.647,VALID,0,VALID,99.0453,VALID,0.0339617,VALID,19.5077,VALID,123,VALID,0.181424,
2001-09-15, 02:58:00,VALID,915.652,VALID,0,VALID,99.0186,VALID,0.0849042,VALID,19.5141,VALID,102,VALID,0.122179,
2001-09-15, 02:59:00,VALID,915.643,VALID,0,VALID,98.9842,VALID,0.0509425,VALID,19.5042,VALID,72,VALID,0.0926011,
2001-09-15, 03:00:00,VALID,915.625,VALID,0,VALID,98.9563,VALID,0.0679233,VALID,19.4977,VALID,45,VALID,0.0177365,
2001-09-15, 03:01:00,VALID,915.63,VALID,0,VALID,98.9168,VALID,0,VALID,19.4826,VALID,45,VALID,0,
2001-09-15, 03:02:00,VALID,915.627,VALID,0,VALID,98.8952,VALID,-0.0169808,VALID,19.4801,VALID,45,VALID,0.00094697,
2001-09-15, 03:03:00,VALID,915.634,VALID,0,VALID,98.8596,VALID,-0.0169808,VALID,19.454,VALID,57,VALID,0,
2001-09-15, 03:04:00,VALID,915.635,VALID,0,VALID,98.8062,VALID,-0.0679233,VALID,19.4219,VALID,65,VALID,0,
2001-09-15, 03:05:00,VALID,915.624,VALID,0,VALID,98.8075,VALID,-0.0339617,VALID,19.4063,VALID,65,VALID,0,
2001-09-15, 03:06:00,VALID,915.633,VALID,0,VALID,98.8584,VALID,0,VALID,19.4187,VALID,89,VALID,0,
2001-09-15, 03:07:00,VALID,915.645,VALID,0,VALID,98.8698,VALID,0,VALID,19.4411,VALID,96,VALID,0.425781,
2001-09-15, 03:08:00,VALID,915.653,VALID,0,VALID,98.866,VALID,-0.0339617,VALID,19.4709,VALID,87,VALID,0.0275735,
2001-09-15, 03:09:00,VALID,915.661,VALID,0,VALID,98.8329,VALID,-0.0339617,VALID,19.4637,VALID,101,VALID,0.432221,
2001-09-15, 03:10:00,VALID,915.665,VALID,0,VALID,98.7884,VALID,-0.0169808,VALID,19.4706,VALID,69,VALID,0.465402,
2001-09-15, 03:11:00,VALID,915.662,VALID,0,VALID,98.7693,VALID,0,VALID,19.454,VALID,65,VALID,0.93892,
2001-09-15, 03:12:00,VALID,915.659,VALID,0,VALID,98.7388,VALID,-0.0169808,VALID,19.4706,VALID,72,VALID,0.925887,
2001-09-15, 03:13:00,VALID,915.656,VALID,0,VALID,98.735,VALID,0,VALID,19.4734,VALID,104,VALID,0.928209,
2001-09-15, 03:14:00,VALID,915.647,VALID,0,VALID,98.7096,VALID,-0.0339617,VALID,19.4898,VALID,101,VALID,0.849195,
2001-09-15, 03:15:00,VALID,915.666,VALID,0,VALID,98.6752,VALID,0,VALID,19.5285,VALID,88,VALID,1.05165,
2001-09-15, 03:16:00,VALID,915.681,VALID,0,VALID,98.6104,VALID,0.0679233,VALID,19.5529,VALID,65,VALID,1.35525,
2001-09-15, 03:17:00,VALID,915.673,VALID,0,VALID,98.543,VALID,0.118866,VALID,19.5847,VALID,60,VALID,1.48989,
2001-09-15, 03:18:00,VALID,915.685,VALID,0,VALID,98.4196,VALID,0.0679233,VALID,19.6329,VALID,75,VALID,1.30976,
2001-09-15, 03:19:00,VALID,915.673,VALID,0,VALID,98.248,VALID,0.0849042,VALID,19.6851,VALID,74,VALID,0.48817,
2001-09-15, 03:20:00,VALID,915.651,VALID,0,VALID,98.0928,VALID,0.0849042,VALID,19.7246,VALID,90,VALID,1.25734,
2001-09-15, 03:21:00,VALID,915.638,VALID,0,VALID,97.8754,VALID,0.0849042,VALID,19.7688,VALID,95,VALID,0.663429,
2001-09-15, 03:22:00,VALID,915.625,VALID,0,VALID,97.6554,VALID,0.101885,VALID,19.8073,VALID,56,VALID,0.9981,
2001-09-15, 03:23:00,VALID,915.601,VALID,0,VALID,97.3782,VALID,0.0679233,VALID,19.8535,VALID,73,VALID,1.06984,
2001-09-15, 03:24:00,VALID,915.603,VALID,0,VALID,97.0832,VALID,0.0849042,VALID,19.8821,VALID,86,VALID,0.762587,
2001-09-15, 03:25:00,VALID,915.576,VALID,0,VALID,96.8212,VALID,0.0849042,VALID,19.9176,VALID,131,VALID,1.11762,
2001-09-15, 03:26:00,VALID,915.563,VALID,0,VALID,96.4398,VALID,0.101885,VALID,19.9529,VALID,86,VALID,1.1096,
2001-09-15, 03:27:00,VALID,915.544,VALID,0,VALID,96.3062,VALID,0.101885,VALID,19.9596,VALID,125,VALID,1.15773,
2001-09-15, 03:28:00,VALID,915.536,VALID,0,VALID,96.0596,VALID,0.0679233,VALID,19.9758,VALID,123,VALID,1.05089,
2001-09-15, 03:29:00,VALID,915.528,VALID,0,VALID,95.8485,VALID,0.0509425,VALID,19.9954,VALID,130,VALID,0.592803,
2001-09-15, 03:30:00,VALID,915.529,VALID,0,VALID,95.7429,VALID,0.0339617,VALID,19.9949,VALID,152,VALID,0.583193,
2001-09-15, 03:31:00,VALID,915.528,VALID,0,VALID,95.7264,VALID,-0.0169808,VALID,19.9835,VALID,158,VALID,1.26056,
2001-09-15, 03:32:00,VALID,915.516,VALID,0,VALID,95.7569,VALID,-0.0169808,VALID,19.9614,VALID,163,VALID,0.655066,
2001-09-15, 03:33:00,VALID,915.49,VALID,0,VALID,95.8599,VALID,-0.0169808,VALID,19.9321,VALID,80,VALID,0.251736,
2001-09-15, 03:34:00,VALID,915.495,VALID,0,VALID,95.9146,VALID,-0.0169808,VALID,19.906,VALID,275,VALID,0.443359,